Temp
13 13 13 13 13 12 11 11 11 11 11 11 10 11 11 10 10 9 9 8 8 8 9 8 8 8 8 8 8 8 7 7 7 7 7 7 7 7 7 7 7 7 7 7 7 7 7 7 7
13 13 13 13 13 12 11 11 11 11 11 10 10 10 10 10 9 9 9 8 8 8 8 8 8 8 8 8 7 7 7 7 7 7 7 7 7 7 7 7 7 7 7 7 7 7 7 7 7
13 13 13 12 12 11 11 11 11 11 10 10 10 10 10 10 9 9 9 8 8 7 7 7 7 7 7 7 7 7 7 7 7 6 6 7 7 7 7 7 7 7 7 6 6 6 7 7 7
13 12 12 11 11 11 11 10 10 10 10 10 10 9 10 9 9 8 9 8 7 7 7 7 7 7 7 7 7 7 6 6 6 6 6 6 6 6 6 6 6 6 6 6 6 6 6 6 6
12 12 12 11 11 10 10 10 10 10 10 10 10 10 10 9 8 8 8 7 7 7 7 6 6 6 6 6 6 5 6 6 6 6 6 5 5 5 5 5 5 6 6 6 6 6 6 6 6
12 12 11 11 10 10 10 10 10 9 9 9 9 9 9 8 8 7 7 6 7 6 6 6 6 5 5 5 5 5 5 5 5 5 5 5 5 5 5 5 5 5 5 5 5 5 5 5 5
12 12 11 10 10 9 9 9 9 8 8 8 8 8 7 7 7 7 5 6 6 6 5 6 5 5 5 4 4 4 5 4 5 5 5 5 5 5 5 5 5 5 5 5 5 5 5 5 5
11 11 10 9 9 9 9 8 8 8 8 8 7 7 7 7 7 6 5 5 5 5 5 4 3 3 3 3 3 4 4 4 4 4 4 5 5 5 5 5 5 5 5 5 5 5 5 5 5
11 10 9 9 9 8 8 8 8 8 7 7 7 7 6 6 6 5 5 5 5 4 4 3 3 3 2 2 3 3 3 3 3 4 4 4 4 4 5 5 5 5 5 5 5 5 5 5 5
10 10 9 8 8 9 9 9 8 7 7 6 6 5 5 5 5 4 4 3 3 2 3 3 3 3 3 3 2 2 3 3 3 3 3 3 3 4 4 4 4 5 5 5 5 5 5 5 5
10 10 8 8 8 8 7 8 8 7 6 6 5 5 4 4 4 4 3 3 2 2 2 3 3 2 2 2 2 2 2 2 2 2 2 2 2 2 3 3 3 4 4 5 5 5 5 5 5
10 9 8 8 8 8 8 8 7 7 6 5 4 4 3 3 2 2 2 2 2 2 2 1 1 1 1 1 1 0 0 1 1 0 0 0 0 0 0 1 1 2 2 3 3 4 4 5 5
9 8 8 8 8 9 8 8 8 6 5 3 2 2 1 1 1 0 -0 -0 -1 -1 -1 -2 -2 -2 -2 -3 -2 -2 -2 -2 -1 -1 -1 -1 -1 -1 -0 0 0 1 1 1 1 2 3 3 4
10 9 8 8 8 8 8 7 6 4 3 2 1 1 0 -0 -1 -1 -2 -2 -3 -3 -3 -4 -4 -4 -4 -4 -4 -4 -3 -3 -2 -2 -2 -1 -1 -1 -1 -1 -0 0 1 1 0 1 1 1 2
9 9 8 8 8 7 7 6 5 3 2 1 -0 -1 -2 -2 -3 -3 -4 -4 -5 -5 -5 -6 -5 -5 -5 -5 -5 -5 -4 -4 -4 -3 -3 -2 -1 -1 -1 -1 -0 -0 0 1 1 1 1 1 1
9 9 8 8 8 7 7 4 3 2 1 -0 -2 -2 -3 -3 -4 -5 -6 -6 -6 -7 -7 -7 -7 -6 -6 -5 -5 -5 -6 -6 -5 -5 -4 -4 -3 -2 -2 -1 -1 -0 0 -0 1 1 1 1 1
9 8 8 7 7 7 6 3 2 0 -1 -2 -3 -3 -4 -5 -5 -6 -6 -6 -7 -7 -6 -6 -6 -6 -6 -6 -7 -7 -7 -6 -6 -6 -6 -5 -5 -4 -4 -4 -4 -3 -3 -2 -2 -2 -1 -0 -0
7 7 7 6 6 5 4 2 1 -1 -3 -4 -4 -5 -5 -6 -6 -6 -6 -6 -6 -5 -5 -5 -5 -6 -7 -8 -8 -8 -7 -7 -7 -7 -7 -7 -6 -6 -6 -6 -5 -5 -5 -5 -4 -4 -4 -4 -3
6 7 6 5 4 2 0 -1 -3 -4 -5 -5 -5 -6 -6 -6 -6 -6 -5 -4 -5 -6 -7 -8 -9 -9 -9 -9 -9 -9 -9 -9 -8 -8 -8 -8 -7 -7 -7 -7 -6 -6 -6 -5 -5 -5 -5 -4 -4
6 6 5 3 3 2 1 -2 -4 -5 -5 -6 -7 -7 -6 -6 -5 -5 -6 -7 -7 -7 -7 -8 -9 -9 -9 -10 -10 -10 -10 -10 -9 -9 -9 -9 -8 -8 -8 -7 -7 -7 -6 -6 -6 -6 -6 -6 -6
6 5 3 3 2 1 -0 -4 -5 -6 -7 -7 -7 -7 -6 -7 -7 -7 -7 -7 -7 -8 -8 -9 -9 -9 -9 -10 -10 -10 -10 -10 -10 -9 -9 -9 -9 -8 -8 -7 -7 -7 -7 -6 -6 -6 -6 -6 -7
5 3 4 3 1 0 -2 -2 -6 -7 -7 -7 -6 -6 -7 -7 -7 -8 -8 -7 -8 -8 -8 -9 -9 -9 -9 -10 -10 -10 -9 -9 -9 -9 -9 -9 -9 -8 -8 -8 -7 -7 -7 -7 -6 -7 -7 -7 -7
3 3 4 2 1 -1 -3 -4 -8 -7 -6 -7 -7 -7 -8 -8 -8 -8 -8 -8 -8 -9 -9 -9 -9 -9 -9 -9 -9 -9 -9 -9 -9 -9 -9 -8 -8 -8 -8 -8 -8 -7 -8 -7 -7 -8 -8 -8 -8
2 3 3 1 1 -2 -3 -4 -8 -8 -9 -8 -8 -8 -8 -8 -8 -8 -8 -8 -8 -8 -9 -9 -9 -9 -9 -9 -9 -9 -9 -9 -9 -9 -9 -8 -8 -8 -8 -8 -8 -8 -8 -8 -8 -8 -8 -9 -9
1 1 0 1 0 0 -4 -3 -6 -9 -9 -9 -9 -9 -8 -8 -9 -9 -9 -9 -8 -9 -9 -9 -9 -9 -9 -10 -10 -10 -10 -10 -9 -9 -9 -9 -9 -8 -8 -9 -9 -9 -9 -9 -9 -9 -9 -9 -9
-1 -2 -1 -2 -1 -3 -5 -5 -6 -8 -9 -7 -8 -8 -8 -8 -9 -9 -9 -9 -9 -9 -9 -9 -9 -9 -9 -10 -10 -10 -10 -10 -10 -10 -10 -10 -10 -10 -10 -10 -9 -10 -10 -10 -9 -9 -9 -9 -9
-2 -4 -5 -6 -6 -7 -6 -6 -6 -8 -8 -9 -8 -8 -8 -8 -9 -9 -9 -9 -10 -10 -9 -9 -9 -9 -9 -9 -9 -9 -9 -10 -9 -9 -10 -10 -10 -10 -10 -10 -11 -11 -11 -11 -10 -10 -9 -9 -9
-2 -4 -4 -6 -8 -6 -8 -6 -8 -9 -10 -9 -9 -9 -9 -9 -9 -9 -9 -10 -9 -9 -10 -9 -9 -9 -9 -9 -10 -10 -9 -9 -9 -9 -9 -10 -10 -10 -10 -10 -10 -11 -11 -11 -11 -11 -10 -10 -9
-4 -5 -6 -7 -8 -8 -9 -6 -9 -10 -10 -10 -10 -10 -9 -9 -9 -9 -10 -9 -9 -9 -9 -9 -9 -9 -9 -9 -10 -9 -9 -9 -9 -9 -9 -9 -10 -10 -10 -10 -10 -10 -10 -11 -11 -11 -10 -9 -9
-5 -6 -8 -8 -8 -9 -10 -10 -9 -10 -10 -10 -10 -10 -9 -9 -9 -10 -10 -9 -9 -9 -9 -9 -9 -9 -9 -9 -9 -9 -9 -9 -9 -9 -9 -10 -10 -10 -10 -10 -10 -10 -10 -11 -11 -11 -10 -9 -9
Height
3184 3185 3185 3186 3191 3188 3188 3191 3191 3190 3190 3189 3189 3188 3188 3186 3186 3189 3186 3185 3185 3184 3182 3180 3179 3179 3177 3176 3176 3174 3172 3171 3170 3169 3168 3168 3167 3167 3166 3165 3165 3164 3164 3164 3163 3163 3163 3163 3163
3183 3184 3185 3186 3188 3187 3189 3190 3190 3190 3190 3189 3189 3189 3188 3187 3186 3185 3185 3184 3183 3182 3182 3181 3179 3178 3177 3176 3174 3173 3171 3170 3169 3168 3167 3166 3165 3165 3164 3163 3163 3162 3162 3161 3161 3160 3160 3161 3161
3182 3183 3185 3185 3185 3187 3189 3189 3190 3190 3190 3190 3189 3189 3188 3187 3186 3185 3184 3183 3182 3181 3179 3179 3178 3176 3175 3173 3172 3171 3169 3169 3168 3166 3165 3164 3162 3161 3160 3160 3159 3159 3159 3158 3158 3158 3157 3158 3158
3182 3184 3185 3185 3186 3188 3189 3190 3190 3190 3190 3189 3189 3188 3188 3186 3185 3184 3183 3182 3180 3179 3179 3177 3176 3175 3173 3172 3170 3168 3167 3165 3164 3163 3162 3161 3159 3158 3157 3156 3156 3155 3155 3154 3154 3155 3154 3154 3155
3182 3183 3184 3185 3187 3188 3189 3190 3190 3190 3190 3189 3188 3187 3186 3185 3184 3182 3180 3179 3179 3177 3177 3175 3173 3171 3169 3167 3166 3163 3162 3162 3161 3159 3157 3156 3155 3154 3153 3153 3153 3152 3152 3151 3151 3150 3151 3150 3150
3183 3184 3185 3186 3188 3189 3190 3190 3191 3191 3190 3189 3188 3187 3186 3184 3182 3180 3178 3176 3176 3174 3173 3171 3169 3167 3165 3162 3161 3159 3157 3156 3155 3155 3154 3152 3151 3150 3149 3149 3148 3146 3146 3147 3147 3147 3147 3146 3147
3183 3185 3186 3188 3190 3191 3191 3191 3191 3190 3189 3189 3188 3187 3186 3184 3181 3178 3177 3175 3173 3171 3169 3166 3163 3162 3159 3158 3154 3153 3151 3151 3150 3149 3148 3147 3146 3145 3144 3143 3143 3143 3142 3142 3141 3141 3142 3142 3142
3184 3186 3188 3190 3191 3192 3191 3191 3191 3190 3189 3187 3186 3185 3184 3181 3178 3175 3173 3171 3169 3166 3163 3160 3158 3156 3155 3152 3150 3148 3147 3145 3143 3142 3141 3139 3139 3138 3137 3137 3137 3137 3137 3136 3136 3136 3136 3136 3136
3185 3186 3188 3189 3190 3190 3190 3190 3189 3188 3187 3186 3184 3182 3180 3177 3175 3171 3169 3167 3165 3162 3158 3154 3150 3147 3145 3144 3141 3140 3138 3138 3136 3134 3132 3131 3130 3129 3129 3129 3129 3129 3129 3129 3129 3129 3129 3130 3130
3185 3186 3188 3189 3190 3190 3189 3188 3186 3186 3183 3181 3179 3177 3174 3172 3169 3166 3164 3161 3158 3155 3151 3148 3144 3142 3138 3135 3132 3130 3128 3126 3125 3124 3123 3122 3121 3120 3119 3119 3119 3119 3120 3120 3121 3122 3122 3122 3123
3184 3186 3188 3189 3189 3189 3187 3185 3184 3183 3180 3177 3175 3172 3171 3169 3166 3163 3160 3156 3152 3149 3146 3142 3138 3134 3131 3128 3125 3123 3120 3118 3116 3114 3112 3111 3110 3110 3109 3109 3108 3109 3109 3110 3111 3112 3113 3113 3114
3186 3187 3188 3186 3188 3188 3187 3185 3184 3181 3179 3177 3174 3171 3168 3165 3162 3158 3154 3150 3145 3140 3136 3133 3129 3127 3124 3120 3116 3113 3111 3110 3108 3106 3104 3102 3100 3099 3099 3099 3098 3098 3098 3100 3101 3101 3102 3103 3104
3188 3189 3189 3190 3189 3189 3186 3183 3179 3175 3172 3170 3168 3164 3159 3154 3149 3145 3140 3135 3131 3128 3125 3122 3119 3115 3112 3109 3106 3103 3101 3099 3097 3096 3094 3092 3091 3091 3089 3088 3088 3088 3088 3088 3089 3090 3091 3092 3093
3189 3190 3190 3189 3187 3184 3182 3179 3176 3173 3170 3165 3161 3157 3153 3149 3145 3140 3135 3131 3127 3123 3119 3115 3111 3107 3103 3100 3097 3094 3092 3090 3088 3086 3083 3081 3080 3079 3078 3079 3078 3077 3077 3077 3077 3078 3079 3080 3081
3189 3191 3190 3189 3186 3183 3179 3177 3173 3167 3164 3161 3156 3152 3148 3143 3140 3136 3132 3127 3121 3117 3112 3108 3102 3099 3094 3092 3088 3084 3082 3078 3075 3073 3071 3070 3068 3067 3065 3063 3062 3061 3062 3063 3062 3063 3064 3066 3069
3189 3188 3186 3185 3182 3180 3177 3170 3166 3163 3158 3155 3152 3149 3145 3141 3136 3132 3127 3122 3119 3112 3105 3101 3095 3090 3086 3081 3077 3074 3070 3067 3065 3062 3059 3056 3053 3053 3052 3051 3049 3047 3046 3045 3045 3045 3044 3046 3050
3187 3185 3182 3179 3176 3173 3171 3164 3159 3157 3153 3150 3148 3145 3141 3136 3133 3128 3124 3118 3113 3108 3101 3094 3088 3082 3076 3071 3065 3061 3059 3056 3053 3051 3048 3046 3042 3040 3039 3038 3037 3036 3036 3035 3033 3031 3030 3030 3031
3186 3183 3179 3175 3172 3166 3161 3155 3151 3151 3148 3147 3145 3142 3138 3133 3129 3124 3119 3113 3106 3100 3092 3083 3077 3071 3065 3060 3055 3050 3048 3046 3042 3039 3037 3034 3030 3029 3029 3028 3028 3026 3025 3025 3024 3021 3020 3017 3016
3185 3181 3178 3174 3170 3167 3162 3159 3154 3150 3148 3147 3144 3140 3135 3130 3125 3118 3110 3103 3094 3087 3078 3071 3063 3059 3054 3049 3043 3040 3037 3034 3033 3029 3026 3024 3020 3017 3017 3016 3015 3015 3014 3013 3013 3011 3009 3008 3007
3184 3180 3177 3174 3169 3165 3158 3157 3154 3151 3147 3145 3142 3137 3131 3124 3118 3110 3102 3094 3087 3079 3071 3064 3057 3051 3046 3040 3034 3030 3026 3024 3020 3018 3016 3013 3010 3009 3006 3005 3005 3004 3002 3001 3002 2999 2996 2995 2996
3183 3180 3176 3171 3161 3156 3154 3151 3150 3151 3148 3146 3142 3135 3130 3120 3110 3104 3098 3091 3083 3075 3066 3058 3051 3044 3038 3032 3026 3021 3017 3012 3008 3006 3003 3001 3000 2999 2997 2996 2994 2993 2992 2991 2991 2989 2987 2984 2984
3180 3176 3169 3161 3157 3154 3152 3153 3150 3148 3146 3142 3135 3129 3124 3118 3111 3103 3093 3084 3075 3067 3059 3051 3044 3038 3031 3025 3018 3011 3004 2999 2997 2992 2989 2987 2986 2985 2984 2983 2981 2981 2981 2979 2978 2977 2976 2974 2973
3178 3171 3162 3156 3153 3150 3151 3154 3147 3145 3140 3135 3131 3126 3120 3113 3104 3095 3086 3078 3070 3061 3052 3043 3035 3027 3020 3013 3007 3000 2994 2989 2984 2981 2977 2975 2973 2972 2972 2970 2970 2969 2967 2966 2966 2966 2965 2964 2963
3173 3168 3158 3152 3151 3147 3151 3152 3146 3143 3140 3134 3130 3123 3116 3108 3100 3092 3083 3073 3063 3053 3044 3034 3024 3016 3008 3000 2993 2987 2980 2975 2970 2967 2962 2960 2958 2958 2957 2956 2954 2954 2954 2954 2954 2954 2954 2953 2953
3173 3165 3157 3154 3150 3150 3150 3151 3146 3144 3141 3136 3127 3121 3113 3104 3094 3084 3075 3064 3052 3041 3030 3018 3008 2998 2991 2985 2978 2972 2965 2959 2954 2951 2948 2945 2942 2941 2941 2940 2939 2939 2940 2941 2942 2943 2943 2943 2943
3174 3172 3175 3176 3163 3157 3154 3151 3150 3146 3144 3139 3127 3118 3108 3098 3088 3078 3068 3055 3041 3028 3016 3005 2996 2987 2980 2971 2963 2957 2951 2944 2938 2933 2930 2927 2925 2924 2924 2922 2922 2924 2925 2927 2929 2930 2932 2934 2934
3179 3177 3178 3174 3168 3163 3156 3154 3150 3145 3141 3131 3120 3110 3101 3091 3081 3069 3058 3046 3031 3018 3007 2997 2987 2978 2969 2961 2952 2944 2938 2931 2924 2920 2916 2912 2910 2908 2907 2906 2905 2906 2908 2911 2914 2917 2920 2924 2926
3183 3182 3178 3178 3174 3164 3157 3152 3150 3143 3133 3126 3118 3106 3095 3086 3076 3064 3050 3037 3023 3012 3000 2990 2979 2968 2959 2950 2942 2934 2926 2919 2913 2907 2903 2899 2896 2894 2893 2893 2892 2893 2895 2897 2899 2902 2908 2913 2917
3181 3178 3178 3177 3177 3175 3165 3152 3149 3145 3136 3126 3116 3106 3095 3082 3070 3056 3042 3028 3017 3006 2995 2983 2971 2960 2950 2941 2934 2926 2918 2910 2903 2897 2893 2888 2885 2883 2881 2880 2881 2882 2883 2885 2887 2890 2895 2901 2907
3182 3179 3177 3178 3179 3175 3173 3155 3151 3144 3134 3124 3113 3103 3094 3081 3066 3051 3037 3024 3013 3001 2989 2978 2964 2953 2943 2934 2925 2916 2909 2902 2895 2889 2884 2880 2876 2874 2871 2871 2871 2872 2873 2875 2877 2881 2885 2890 2896
Wind_Speed
3 3 4 2 2 4 7 4 5 2 3 3 4 5 10 7 3 2 3 5 7 9 10 8 7 8 7 8 9 10 10 10 11 11 11 11 10 10 10 9 9 7 7 7 7 6 6 6 6
5 6 7 4 2 9 6 7 4 3 2 1 4 7 5 7 5 3 4 8 7 8 10 10 9 10 11 11 11 11 11 11 12 12 12 13 13 13 13 12 12 11 10 9 8 8 8 7 7
6 7 6 5 6 7 7 7 4 1 1 3 5 5 7 8 6 8 8 9 8 8 8 7 8 9 10 11 12 13 14 14 15 15 15 14 15 15 15 15 15 15 14 12 11 11 11 10 10
6 7 6 5 10 7 5 5 2 1 4 6 7 6 10 10 8 10 12 9 8 10 10 11 12 15 16 19 17 17 17 16 16 16 17 17 17 18 17 17 18 17 16 15 14 14 14 14 14
6 5 4 10 10 9 5 3 3 5 6 9 12 14 14 10 9 13 13 9 10 12 14 17 19 20 19 19 18 16 20 20 20 20 19 19 20 19 19 19 18 18 19 18 17 16 17 17 18
5 4 9 10 10 7 3 2 3 4 7 10 12 13 13 12 13 12 13 15 15 17 19 20 22 22 22 21 24 22 21 22 23 23 22 22 23 23 23 22 21 21 17 18 20 20 20 20 20
2 3 9 10 8 4 0 4 6 9 11 14 15 12 12 13 13 15 15 18 19 22 24 25 27 26 28 28 22 24 23 22 24 26 25 24 27 27 26 26 25 24 23 23 24 24 23 23 23
4 6 11 7 4 1 4 5 8 10 12 12 11 8 14 17 15 16 19 20 23 25 27 29 27 31 29 30 25 32 26 31 27 33 33 35 33 31 30 32 29 27 28 28 27 26 25 26 26
5 6 9 6 2 2 5 8 9 10 9 9 10 16 16 15 16 19 21 23 24 26 28 32 32 32 32 31 31 36 35 34 36 38 38 39 39 38 38 36 35 34 33 33 32 31 30 30 28
3 9 7 4 1 5 9 9 10 8 9 9 11 13 14 16 18 21 22 23 26 28 29 31 32 32 32 32 32 32 32 34 33 34 36 37 39 40 41 41 40 38 37 36 37 38 37 36 34
7 7 7 4 2 3 5 9 9 9 12 13 13 15 17 19 21 24 26 29 31 33 34 35 35 36 35 36 37 37 38 39 38 36 36 36 37 39 41 42 43 43 43 43 42 41 41 40 40
6 7 6 2 2 6 8 12 15 14 14 14 15 17 19 22 25 27 30 33 35 37 38 38 38 38 38 39 41 41 39 40 40 37 36 34 33 34 35 38 40 41 43 44 46 47 48 46 45
8 6 2 6 11 14 14 13 13 13 10 11 15 18 22 25 27 28 30 31 33 34 35 34 34 36 36 35 36 37 36 35 36 37 37 37 35 34 35 36 38 40 41 40 39 41 43 46 50
4 5 5 5 9 13 16 17 12 13 14 18 22 24 27 28 28 29 28 30 31 33 34 35 33 32 34 35 37 38 41 42 40 39 40 40 40 41 41 42 43 45 46 45 44 44 45 45 46
2 3 9 6 11 14 18 15 14 16 18 22 25 27 27 26 26 27 28 28 30 31 32 33 36 37 40 42 42 41 41 43 42 41 42 44 47 49 50 51 53 54 57 61 62 61 57 53 51
4 4 10 13 14 18 22 17 14 19 25 26 28 28 26 24 23 21 23 25 28 32 37 43 48 51 52 51 47 45 41 38 38 39 40 42 47 50 51 56 58 61 65 67 73 71 69 69 69
4 10 13 15 22 23 22 18 21 22 24 25 25 24 23 23 22 23 27 31 36 41 47 52 53 53 52 50 48 41 36 36 36 35 36 36 39 42 43 45 46 47 50 51 51 51 56 64 67
13 17 18 21 27 26 21 22 21 20 22 21 21 20 22 23 25 34 41 42 48 54 58 58 57 54 45 43 39 39 36 34 32 33 35 36 37 38 39 39 38 37 39 40 40 42 43 44 47
17 19 18 26 21 29 31 21 14 15 15 17 19 22 29 33 42 52 55 61 62 51 45 43 42 36 36 41 41 38 36 36 35 31 30 34 37 37 37 35 35 35 37 37 38 39 40 43 44
19 18 21 17 31 30 32 20 15 14 16 15 25 34 39 48 54 59 55 43 40 42 45 44 39 40 39 35 39 40 40 40 42 37 35 35 35 35 36 37 37 37 38 38 38 40 41 42 42
24 20 30 32 34 27 15 15 17 14 11 16 32 37 46 52 49 40 36 41 41 44 43 39 36 37 37 36 35 36 40 42 43 42 41 37 36 35 35 37 37 37 37 39 39 40 41 43 43
18 28 32 35 19 4 8 5 6 14 16 23 29 42 51 41 39 44 45 47 46 44 40 40 39 38 37 36 37 37 40 42 41 43 42 41 39 37 37 36 37 37 38 39 39 40 40 41 42
21 30 35 18 9 7 8 6 7 12 23 31 42 52 46 44 48 49 48 46 44 43 45 47 47 46 45 44 42 41 41 42 43 42 43 41 39 39 39 41 41 40 39 39 39 38 37 36 36
30 33 19 12 6 1 6 5 6 18 34 39 52 49 46 47 48 47 46 47 49 51 51 50 48 48 46 46 46 45 45 44 45 46 46 46 45 44 44 44 44 43 41 39 37 36 36 33 34
24 34 8 4 4 4 3 13 8 12 28 47 55 45 46 48 51 51 51 52 53 53 53 52 49 47 44 43 44 46 49 51 52 51 51 50 50 50 49 48 47 46 43 40 38 37 35 32 32
23 28 8 5 6 11 17 2 7 14 31 48 41 45 48 52 51 52 55 56 59 57 52 48 45 43 42 42 41 40 40 41 44 47 50 53 55 56 55 56 54 51 47 43 40 38 37 32 31
17 23 13 9 9 6 6 9 16 22 42 49 45 48 51 53 55 58 59 61 59 54 49 47 47 45 41 42 42 39 40 40 41 41 41 41 40 40 39 41 42 45 47 49 47 44 39 36 32
20 23 11 12 7 7 4 10 15 30 52 49 48 51 53 55 57 60 63 58 55 51 49 49 48 46 42 41 39 39 38 38 38 38 38 38 38 37 35 32 34 36 36 35 35 43 42 37 34
19 22 15 6 1 3 5 11 17 43 45 49 49 50 53 58 61 64 63 59 53 50 51 51 51 49 45 38 37 38 37 35 33 33 33 32 32 32 33 33 31 31 33 32 35 32 40 40 34
17 20 19 6 4 8 9 12 30 40 44 47 49 51 54 57 63 66 63 58 52 52 50 53 49 42 39 36 37 36 31 31 29 28 27 28 27 25 27 27 29 28 26 29 31 31 34 39 36
Wind_Direction
170 182 187 205 161 125 122 130 145 190 300 326 350 347 326 341 307 194 237 299 306 298 293 271 269 273 275 273 270 276 271 271 268 271 274 273 275 279 285 287 289 291 298 302 302 303 303 302 299
200 201 212 211 186 141 130 144 176 249 286 330 335 319 311 325 333 315 288 297 302 304 301 300 296 294 297 297 292 287 280 279 281 281 277 278 279 277 277 278 278 276 276 276 278 283 290 290 287
198 190 183 160 151 136 150 158 175 194 290 294 291 271 288 295 302 296 297 309 304 304 297 305 295 307 307 303 297 290 286 284 281 279 280 276 276 273 269 267 267 270 270 269 270 272 274 275 275
195 184 169 152 134 127 148 161 172 248 301 301 306 279 294 293 291 285 293 292 289 291 293 297 301 302 300 301 293 289 279 277 273 270 275 278 275 273 273 272 267 260 260 262 266 267 267 272 275
194 177 171 139 125 122 128 165 244 281 286 291 296 301 303 306 276 290 294 283 287 277 286 288 291 297 293 302 289 290 286 280 282 280 280 280 275 274 270 269 269 269 265 261 259 260 264 266 268
188 187 140 138 137 133 137 228 266 292 298 299 299 305 306 308 297 301 296 279 275 278 279 285 288 290 285 289 290 283 285 284 278 279 276 279 279 276 273 270 271 274 266 263 264 263 261 262 266
193 169 144 141 139 140 337 324 325 321 318 316 311 301 300 307 303 298 291 286 282 286 288 291 292 300 286 296 293 288 299 282 294 280 279 285 285 280 276 270 268 267 266 266 262 262 261 263 263
106 123 127 118 109 92 303 314 319 319 319 318 312 298 304 302 293 271 266 276 279 284 292 293 292 284 289 292 291 284 291 284 284 287 287 285 285 279 278 278 272 270 270 267 266 267 265 261 260
94 134 125 126 162 271 296 302 303 314 319 313 294 292 292 289 281 274 273 277 279 282 277 285 287 286 283 287 281 283 284 281 280 284 282 285 287 285 279 281 274 270 267 265 265 264 265 267 265
135 144 124 107 22 312 315 304 300 300 288 280 282 282 278 271 268 270 274 276 276 277 277 278 278 278 279 278 279 280 280 279 279 279 278 278 278 278 279 279 276 274 271 266 264 263 263 263 264
128 134 131 116 74 12 336 319 315 295 286 283 278 272 271 271 273 276 277 277 278 279 279 278 278 279 282 284 285 286 287 288 287 287 285 283 282 279 275 272 272 271 270 269 269 266 264 264 263
114 118 130 177 350 332 306 321 317 307 303 294 288 283 281 280 278 276 276 277 277 276 278 280 282 283 284 285 285 285 286 284 284 283 282 281 280 279 279 277 274 272 270 268 266 267 268 266 265
87 95 43 345 336 333 335 313 308 303 291 277 271 269 268 268 269 271 273 276 278 280 282 285 288 287 288 289 286 285 286 286 285 284 282 280 278 278 277 276 275 274 273 272 272 271 267 266 266
103 64 3 334 311 316 319 321 310 299 281 270 267 266 267 270 273 274 278 281 285 289 292 295 296 295 294 293 293 295 294 293 291 290 289 288 289 291 288 283 279 278 277 274 274 274 272 269 267
42 345 338 310 314 318 316 301 282 280 275 271 269 269 270 274 279 284 290 291 294 296 299 301 299 301 304 307 311 312 310 307 306 303 299 293 288 288 288 288 289 290 291 288 282 281 279 273 269
351 314 331 312 316 312 314 301 287 288 281 275 272 272 272 275 281 287 294 302 312 314 315 319 320 318 316 313 312 310 309 306 303 303 302 299 298 296 295 291 290 288 289 294 285 281 280 279 275
296 325 325 318 311 312 305 293 291 286 278 277 274 271 270 272 275 287 302 314 319 319 317 316 313 312 311 308 306 305 303 301 299 296 291 284 287 290 284 287 288 286 285 283 279 279 277 273 269
336 334 322 317 315 311 306 299 282 278 270 271 270 275 283 293 305 317 322 317 313 311 313 315 313 310 302 295 291 293 293 294 291 294 292 282 278 273 269 269 270 272 274 276 277 278 278 278 274
336 328 321 326 321 324 318 302 270 259 266 271 280 300 314 320 321 324 319 318 320 325 329 327 326 322 303 287 287 285 285 286 290 284 288 283 278 277 277 277 279 279 277 278 280 282 284 281 279
333 333 328 330 318 316 307 288 265 261 279 304 337 337 334 329 329 329 330 336 341 338 333 328 324 323 321 316 295 291 291 288 290 289 290 291 282 279 281 281 280 280 281 281 282 282 288 289 282
346 343 333 320 314 314 290 266 260 272 296 322 342 340 337 343 341 340 342 335 336 335 333 333 327 321 322 320 312 299 294 292 290 289 287 288 285 277 274 272 273 274 277 278 280 281 282 287 282
352 340 331 314 315 298 265 291 273 288 301 332 327 339 343 341 339 335 332 332 333 333 332 328 324 319 316 313 306 300 296 293 291 289 290 288 286 281 279 277 275 274 276 279 280 277 280 281 280
341 342 329 324 314 275 235 270 322 326 331 341 344 342 341 340 338 337 335 332 331 329 326 322 318 314 310 306 303 298 294 291 289 287 285 283 282 280 278 277 277 277 277 278 276 275 279 278 277
341 347 332 319 320 184 155 355 340 3 1 348 342 343 340 337 338 337 336 333 329 327 324 320 313 309 305 302 299 296 293 290 287 286 284 284 281 279 278 277 276 276 274 273 272 271 272 271 272
346 5 340 328 340 355 162 328 277 328 350 347 341 339 337 337 340 340 337 332 330 328 324 321 320 316 312 305 298 293 290 287 284 282 281 280 278 277 276 275 274 273 272 269 266 265 266 264 267
1 15 51 312 312 313 322 288 330 315 340 330 336 339 338 340 341 340 338 337 334 332 330 330 329 326 322 320 315 307 300 293 288 284 280 277 274 274 273 272 271 268 267 263 261 259 257 257 262
358 11 6 308 282 300 334 326 327 327 331 341 344 340 338 342 343 341 339 340 339 339 339 336 331 327 322 317 315 310 307 304 297 292 289 287 284 281 276 273 271 268 264 261 256 254 253 251 257
6 3 358 355 347 315 345 316 329 342 340 342 344 341 344 344 343 343 344 344 345 343 339 338 336 333 331 325 319 317 313 305 302 300 295 290 288 286 284 279 271 267 264 262 257 248 247 249 251
358 8 17 356 60 292 315 326 337 340 341 343 347 346 345 344 346 347 348 348 346 346 344 343 341 336 335 332 330 328 325 321 308 301 298 297 292 284 282 281 270 271 267 263 257 250 240 242 245
352 1 13 30 334 287 274 283 338 340 343 350 348 346 346 347 350 351 351 349 349 349 351 351 355 352 345 337 333 334 325 321 316 312 306 301 297 292 287 280 271 272 267 260 257 247 238 235 241